Location: Austin
(30.3000°N, 97.7500°W)
Time: 22:50:46
(UTC-05:00)

SJ 16-02 - Pass Details

Date: 06 May 2026
Orbit: 582 x 592 km, 75.0° (Epoch: 13 May)

Event Time Altitude Azimuth Distance (km) Brightness Sun altitude
Rises 21:30:06 0° 347° (NNW) 2,804 5.4 -16.0°
Reaches altitude 10° 21:32:20 10° 349° (NNW) 1,901 4.5 -16.4°
Maximum altitude 21:36:34 76° 75° (ENE) 601 1.1 -17.2°
Enters shadow 21:38:31 31° 156° (SSE) 1,026 2.0 -17.5°
